Location: Follega
(52.8850°N, 5.7362°E)
Time: 03:23:42
(UTC+00:00)

Cosmos 2297 Rocket - Pass Details

Date: 10 October 2020
Orbit: 838 x 845 km, 71.0° (Epoch: 26 October)

Event Time Altitude Azimuth Distance (km) Brightness Sun altitude
Rises 22:16:38 0° 322° (NW) 3,417 6.1 -42.2°
Reaches altitude 10° 22:19:26 10° 310° (NW) 2,477 5.1 -42.4°
Enters shadow 22:20:25 14° 304° (NW) 2,193 4.8 -42.4°
